Time,TemperatureF,DewpointF,PressureIn,WindDirection,WindDirectionDegrees,WindSpeedMPH,WindSpeedGustMPH,Humidity,HourlyPrecipIn,Conditions,Clouds,dailyrainin,SoftwareType,DateUTC
2013-02-14 00:11:00,50.0,-99.9,30.39,North,360,25.0,31.0,-999,-99.99,,,-99.99,,2013-02-14 08:11:00,
2013-02-14 00:22:00,50.0,-99.9,30.39,North,360,25.0,31.0,-999,-99.99,,,-99.99,,2013-02-14 08:22:00,
2013-02-14 00:32:00,50.0,-99.9,30.39,North,360,25.0,31.0,-999,-99.99,,,-99.99,,2013-02-14 08:32:00,
2013-02-14 00:43:00,50.0,-99.9,30.39,North,360,25.0,31.0,-999,-99.99,,,-99.99,,2013-02-14 08:43:00,
2013-02-14 00:50:00,50.0,-99.9,30.38,North,360,27.0,36.0,-999,-99.99,,,-99.99,,2013-02-14 08:50:00,
2013-02-14 01:22:00,50.0,-99.9,30.38,North,360,27.0,36.0,-999,-99.99,,,-99.99,,2013-02-14 09:22:00,
2013-02-14 01:32:00,50.0,-99.9,30.38,North,360,27.0,36.0,-999,-99.99,,,-99.99,,2013-02-14 09:32:00,
2013-02-14 01:42:00,50.0,-99.9,30.38,North,360,27.0,36.0,-999,-99.99,,,-99.99,,2013-02-14 09:42:00,
2013-02-14 01:50:00,50.0,-99.9,30.37,North,360,27.0,31.0,-999,-99.99,,,-99.99,,2013-02-14 09:50:00,
2013-02-14 02:11:00,50.0,-99.9,30.37,North,360,27.0,31.0,-999,-99.99,,,-99.99,,2013-02-14 10:11:00,
2013-02-14 02:22:00,50.0,-99.9,30.37,North,360,27.0,31.0,-999,-99.99,,,-99.99,,2013-02-14 10:22:00,
2013-02-14 02:32:00,50.0,-99.9,30.37,North,360,27.0,31.0,-999,-99.99,,,-99.99,,2013-02-14 10:32:00,
2013-02-14 02:42:00,50.0,-99.9,30.37,North,360,27.0,31.0,-999,-99.99,,,-99.99,,2013-02-14 10:42:00,
2013-02-14 02:50:00,50.0,-99.9,30.38,North,360,27.0,31.0,-999,-99.99,,,-99.99,,2013-02-14 10:50:00,
2013-02-14 03:12:00,50.0,-99.9,30.38,North,360,27.0,31.0,-999,-99.99,,,-99.99,,2013-02-14 11:12:00,
2013-02-14 03:22:00,50.0,-99.9,30.38,North,360,27.0,31.0,-999,-99.99,,,-99.99,,2013-02-14 11:22:00,
2013-02-14 03:32:00,50.0,-99.9,30.38,North,360,27.0,31.0,-999,-99.99,,,-99.99,,2013-02-14 11:32:00,
2013-02-14 03:42:00,50.0,-99.9,30.38,North,360,27.0,31.0,-999,-99.99,,,-99.99,,2013-02-14 11:42:00,
2013-02-14 03:50:00,50.0,-99.9,30.37,North,360,27.0,31.0,-999,-99.99,,,-99.99,,2013-02-14 11:50:00,
2013-02-14 04:12:00,50.0,-99.9,30.37,North,360,27.0,31.0,-999,-99.99,,,-99.99,,2013-02-14 12:12:00,
2013-02-14 04:22:00,50.0,-99.9,30.37,North,360,27.0,31.0,-999,-99.99,,,-99.99,,2013-02-14 12:22:00,
2013-02-14 04:32:00,50.0,-99.9,30.37,North,360,27.0,31.0,-999,-99.99,,,-99.99,,2013-02-14 12:32:00,
2013-02-14 04:42:00,50.0,-99.9,30.37,North,360,27.0,31.0,-999,-99.99,,,-99.99,,2013-02-14 12:42:00,
2013-02-14 04:50:00,49.0,-99.9,30.37,North,360,25.0,29.0,-999,-99.99,,,-99.99,,2013-02-14 12:50:00,
2013-02-14 05:11:00,49.0,-99.9,30.37,North,360,25.0,29.0,-999,-99.99,,,-99.99,,2013-02-14 13:11:00,
2013-02-14 05:21:00,49.0,-99.9,30.37,North,360,25.0,29.0,-999,-99.99,,,-99.99,,2013-02-14 13:21:00,
2013-02-14 05:32:00,49.0,-99.9,30.37,North,360,25.0,29.0,-999,-99.99,,,-99.99,,2013-02-14 13:32:00,
2013-02-14 05:42:00,49.0,-99.9,30.37,North,360,25.0,29.0,-999,-99.99,,,-99.99,,2013-02-14 13:42:00,
2013-02-14 05:50:00,49.0,-99.9,30.38,North,360,22.0,27.0,-999,-99.99,,,-99.99,,2013-02-14 13:50:00,
2013-02-14 06:22:00,49.0,-99.9,30.38,North,360,22.0,27.0,-999,-99.99,,,-99.99,,2013-02-14 14:22:00,
2013-02-14 06:32:00,49.0,-99.9,30.38,North,360,22.0,27.0,-999,-99.99,,,-99.99,,2013-02-14 14:32:00,
2013-02-14 06:42:00,49.0,-99.9,30.38,North,360,22.0,27.0,-999,-99.99,,,-99.99,,2013-02-14 14:42:00,
2013-02-14 06:50:00,50.0,-99.9,30.38,North,350,22.0,27.0,-999,-99.99,,,-99.99,,2013-02-14 14:50:00,
2013-02-14 07:11:00,50.0,-99.9,30.38,North,350,22.0,27.0,-999,-99.99,,,-99.99,,2013-02-14 15:11:00,
2013-02-14 07:22:00,50.0,-99.9,30.38,North,350,22.0,27.0,-999,-99.99,,,-99.99,,2013-02-14 15:22:00,
2013-02-14 07:32:00,50.0,-99.9,30.38,North,350,22.0,27.0,-999,-99.99,,,-99.99,,2013-02-14 15:32:00,
2013-02-14 07:42:00,50.0,-99.9,30.38,North,350,22.0,27.0,-999,-99.99,,,-99.99,,2013-02-14 15:42:00,
2013-02-14 07:50:00,50.0,-99.9,30.38,North,360,20.0,25.0,-999,-99.99,,,-99.99,,2013-02-14 15:50:00,
2013-02-14 08:22:00,50.0,-99.9,30.38,North,360,20.0,25.0,-999,-99.99,,,-99.99,,2013-02-14 16:22:00,
2013-02-14 08:32:00,50.0,-99.9,30.38,North,360,20.0,25.0,-999,-99.99,,,-99.99,,2013-02-14 16:32:00,
2013-02-14 08:42:00,50.0,-99.9,30.38,North,360,20.0,25.0,-999,-99.99,,,-99.99,,2013-02-14 16:42:00,
2013-02-14 08:50:00,50.0,-99.9,30.39,North,10,18.0,20.0,-999,-99.99,,,-99.99,,2013-02-14 16:50:00,
2013-02-14 09:11:00,50.0,-99.9,30.39,North,10,18.0,20.0,-999,-99.99,,,-99.99,,2013-02-14 17:11:00,
2013-02-14 09:22:00,50.0,-99.9,30.39,North,10,18.0,20.0,-999,-99.99,,,-99.99,,2013-02-14 17:22:00,
2013-02-14 09:32:00,50.0,-99.9,30.39,North,10,18.0,20.0,-999,-99.99,,,-99.99,,2013-02-14 17:32:00,
2013-02-14 09:42:00,50.0,-99.9,30.39,North,10,18.0,20.0,-999,-99.99,,,-99.99,,2013-02-14 17:42:00,
2013-02-14 09:50:00,49.0,-99.9,30.38,North,10,16.0,20.0,-999,-99.99,,,-99.99,,2013-02-14 17:50:00,
2013-02-14 10:11:00,49.0,-99.9,30.38,North,10,16.0,20.0,-999,-99.99,,,-99.99,,2013-02-14 18:11:00,
2013-02-14 10:23:00,49.0,-99.9,30.38,North,10,16.0,20.0,-999,-99.99,,,-99.99,,2013-02-14 18:23:00,
2013-02-14 10:32:00,49.0,-99.9,30.38,North,10,16.0,20.0,-999,-99.99,,,-99.99,,2013-02-14 18:32:00,
2013-02-14 10:42:00,49.0,-99.9,30.38,North,10,16.0,20.0,-999,-99.99,,,-99.99,,2013-02-14 18:42:00,
2013-02-14 10:50:00,49.0,-99.9,30.37,North,10,16.0,20.0,-999,-99.99,,,-99.99,,2013-02-14 18:50:00,
2013-02-14 11:11:00,49.0,-99.9,30.37,North,10,16.0,20.0,-999,-99.99,,,-99.99,,2013-02-14 19:11:00,
2013-02-14 11:22:00,49.0,-99.9,30.37,North,10,16.0,20.0,-999,-99.99,,,-99.99,,2013-02-14 19:22:00,
2013-02-14 11:32:00,49.0,-99.9,30.37,North,10,16.0,20.0,-999,-99.99,,,-99.99,,2013-02-14 19:32:00,
2013-02-14 11:42:00,49.0,-99.9,30.37,North,10,16.0,20.0,-999,-99.99,,,-99.99,,2013-02-14 19:42:00,
2013-02-14 11:50:00,50.0,-99.9,30.35,North,360,20.0,25.0,-999,-99.99,,,-99.99,,2013-02-14 19:50:00,
2013-02-14 12:11:00,50.0,-99.9,30.35,North,360,20.0,25.0,-999,-99.99,,,-99.99,,2013-02-14 20:11:00,
2013-02-14 12:22:00,50.0,-99.9,30.35,North,360,20.0,25.0,-999,-99.99,,,-99.99,,2013-02-14 20:22:00,
2013-02-14 12:32:00,50.0,-99.9,30.35,North,360,20.0,25.0,-999,-99.99,,,-99.99,,2013-02-14 20:32:00,
2013-02-14 12:42:00,50.0,-99.9,30.35,North,360,20.0,25.0,-999,-99.99,,,-99.99,,2013-02-14 20:42:00,
2013-02-14 12:50:00,50.0,-99.9,30.32,North,360,22.0,25.0,-999,-99.99,,,-99.99,,2013-02-14 20:50:00,
2013-02-14 13:11:00,50.0,-99.9,30.32,North,360,22.0,25.0,-999,-99.99,,,-99.99,,2013-02-14 21:11:00,
2013-02-14 13:22:00,50.0,-99.9,30.32,North,360,22.0,25.0,-999,-99.99,,,-99.99,,2013-02-14 21:22:00,
2013-02-14 13:32:00,50.0,-99.9,30.32,North,360,22.0,25.0,-999,-99.99,,,-99.99,,2013-02-14 21:32:00,
2013-02-14 13:42:00,50.0,-99.9,30.32,North,360,22.0,25.0,-999,-99.99,,,-99.99,,2013-02-14 21:42:00,
2013-02-14 13:50:00,50.0,-99.9,30.29,North,360,22.0,25.0,-999,-99.99,,,-99.99,,2013-02-14 21:50:00,
2013-02-14 14:11:00,50.0,-99.9,30.29,North,360,22.0,25.0,-999,-99.99,,,-99.99,,2013-02-14 22:11:00,
2013-02-14 14:21:00,50.0,-99.9,30.29,North,360,22.0,25.0,-999,-99.99,,,-99.99,,2013-02-14 22:21:00,
2013-02-14 14:32:00,50.0,-99.9,30.29,North,360,22.0,25.0,-999,-99.99,,,-99.99,,2013-02-14 22:32:00,
2013-02-14 14:42:00,50.0,-99.9,30.29,North,360,22.0,25.0,-999,-99.99,,,-99.99,,2013-02-14 22:42:00,
2013-02-14 14:50:00,51.0,-99.9,30.26,North,360,22.0,27.0,-999,-99.99,,,-99.99,,2013-02-14 22:50:00,
2013-02-14 15:22:00,51.0,-99.9,30.26,North,360,22.0,27.0,-999,-99.99,,,-99.99,,2013-02-14 23:22:00,
2013-02-14 15:32:00,51.0,-99.9,30.26,North,360,22.0,27.0,-999,-99.99,,,-99.99,,2013-02-14 23:32:00,
2013-02-14 15:42:00,51.0,-99.9,30.26,North,360,22.0,27.0,-999,-99.99,,,-99.99,,2013-02-14 23:42:00,
2013-02-14 15:50:00,51.0,-99.9,30.25,North,360,25.0,29.0,-999,-99.99,,,-99.99,,2013-02-14 23:50:00,
2013-02-14 16:22:00,51.0,-99.9,30.25,North,360,25.0,29.0,-999,-99.99,,,-99.99,,2013-02-15 00:22:00,
2013-02-14 16:32:00,51.0,-99.9,30.25,North,360,25.0,29.0,-999,-99.99,,,-99.99,,2013-02-15 00:32:00,
2013-02-14 16:42:00,51.0,-99.9,30.25,North,360,25.0,29.0,-999,-99.99,,,-99.99,,2013-02-15 00:42:00,
2013-02-14 16:50:00,51.0,-99.9,30.26,North,360,20.0,25.0,-999,-99.99,,,-99.99,,2013-02-15 00:50:00,
2013-02-14 17:11:00,51.0,-99.9,30.26,North,360,20.0,25.0,-999,-99.99,,,-99.99,,2013-02-15 01:11:00,
2013-02-14 17:22:00,51.0,-99.9,30.26,North,360,20.0,25.0,-999,-99.99,,,-99.99,,2013-02-15 01:22:00,
2013-02-14 17:32:00,51.0,-99.9,30.26,North,360,20.0,25.0,-999,-99.99,,,-99.99,,2013-02-15 01:32:00,
2013-02-14 17:42:00,51.0,-99.9,30.26,North,360,20.0,25.0,-999,-99.99,,,-99.99,,2013-02-15 01:42:00,
2013-02-14 17:50:00,51.0,-99.9,30.24,North,360,18.0,22.0,-999,-99.99,,,-99.99,,2013-02-15 01:50:00,
2013-02-14 18:21:00,51.0,-99.9,30.24,North,360,18.0,22.0,-999,-99.99,,,-99.99,,2013-02-15 02:21:00,
2013-02-14 18:32:00,51.0,-99.9,30.24,North,360,18.0,22.0,-999,-99.99,,,-99.99,,2013-02-15 02:32:00,
2013-02-14 18:42:00,51.0,-99.9,30.24,North,360,18.0,22.0,-999,-99.99,,,-99.99,,2013-02-15 02:42:00,
2013-02-14 18:50:00,51.0,-99.9,30.24,North,10,18.0,20.0,-999,-99.99,,,-99.99,,2013-02-15 02:50:00,
2013-02-14 19:22:00,51.0,-99.9,30.24,North,10,18.0,20.0,-999,-99.99,,,-99.99,,2013-02-15 03:22:00,
2013-02-14 19:32:00,51.0,-99.9,30.24,North,10,18.0,20.0,-999,-99.99,,,-99.99,,2013-02-15 03:32:00,
2013-02-14 19:42:00,51.0,-99.9,30.24,North,10,18.0,20.0,-999,-99.99,,,-99.99,,2013-02-15 03:42:00,
2013-02-14 19:50:00,50.0,-99.9,30.25,NNE,30,11.0,13.0,-999,-99.99,,,-99.99,,2013-02-15 03:50:00,
2013-02-14 20:22:00,50.0,-99.9,30.25,NNE,30,11.0,13.0,-999,-99.99,,,-99.99,,2013-02-15 04:22:00,
2013-02-14 20:32:00,50.0,-99.9,30.25,NNE,30,11.0,13.0,-999,-99.99,,,-99.99,,2013-02-15 04:32:00,
2013-02-14 20:42:00,50.0,-99.9,30.25,NNE,30,11.0,13.0,-999,-99.99,,,-99.99,,2013-02-15 04:42:00,
2013-02-14 20:50:00,50.0,-99.9,30.24,North,10,9.0,11.0,-999,-99.99,,,-99.99,,2013-02-15 04:50:00,
2013-02-14 21:12:00,50.0,-99.9,30.24,North,10,9.0,11.0,-999,-99.99,,,-99.99,,2013-02-15 05:12:00,
2013-02-14 21:22:00,50.0,-99.9,30.24,North,10,9.0,11.0,-999,-99.99,,,-99.99,,2013-02-15 05:22:00,
2013-02-14 21:33:00,50.0,-99.9,30.24,North,10,9.0,11.0,-999,-99.99,,,-99.99,,2013-02-15 05:33:00,
2013-02-14 21:42:00,50.0,-99.9,30.24,North,10,9.0,11.0,-999,-99.99,,,-99.99,,2013-02-15 05:42:00,
2013-02-14 21:50:00,50.0,-99.9,30.23,NNE,20,16.0,18.0,-999,-99.99,,,-99.99,,2013-02-15 05:50:00,
2013-02-14 22:22:00,50.0,-99.9,30.23,NNE,20,16.0,18.0,-999,-99.99,,,-99.99,,2013-02-15 06:22:00,
2013-02-14 22:32:00,50.0,-99.9,30.23,NNE,20,16.0,18.0,-999,-99.99,,,-99.99,,2013-02-15 06:32:00,
2013-02-14 22:42:00,50.0,-99.9,30.23,NNE,20,16.0,18.0,-999,-99.99,,,-99.99,,2013-02-15 06:42:00,
2013-02-14 22:50:00,50.0,-99.9,30.24,NNE,20,11.0,13.0,-999,-99.99,,,-99.99,,2013-02-15 06:50:00,
2013-02-14 23:11:00,50.0,-99.9,30.24,NNE,20,11.0,13.0,-999,-99.99,,,-99.99,,2013-02-15 07:11:00,
2013-02-14 23:21:00,50.0,-99.9,30.24,NNE,20,11.0,13.0,-999,-99.99,,,-99.99,,2013-02-15 07:21:00,
2013-02-14 23:32:00,50.0,-99.9,30.24,NNE,20,11.0,13.0,-999,-99.99,,,-99.99,,2013-02-15 07:32:00,
2013-02-14 23:42:00,50.0,-99.9,30.24,NNE,20,11.0,13.0,-999,-99.99,,,-99.99,,2013-02-15 07:42:00,
2013-02-14 23:50:00,49.0,-99.9,30.24,NNE,20,9.0,11.0,-999,-99.99,,,-99.99,,2013-02-15 07:50:00,